Regional Weather Roundup
Issued by NWS

Home | Current Version | Previous Version | Graphics & Text | Print | Product List | Glossary On
Versions: 1 2 3 4 5 6 7 8 9 10 11 12 13 14 15 16 17 18 19 20 21 22 23 24 25 26 27 28 29 30 31 32 33 34 35 36 37 38 39 40 41 42 43 44 45 46 47 48 49 50
000
ASUS45 KCYS 270410
RWRWY

WYOMING REGIONAL WEATHER ROUNDUP
NATIONAL WEATHER SERVICE CHEYENNE WY
1000 PM MDT SUN APR 26 2015

NOTE:  "FAIR" INDICATES FEW OR NO CLOUDS BELOW 12,000 FEET
WITH NO SIGNIFICANT WEATHER AND/OR OBSTRUCTIONS TO VISIBILITY.

WYZ001-270500-
YELLOWSTONE NATIONAL PARK

CITY           SKY/WX    TMP DP  RH WIND       PRES   REMARKS
LK YELLOWSTONE   N/A     32  28  85 VRB5      30.18R WCI  27
W YELLOWSTONE  NOT AVBL

$$
WYZ002>013-054>058-071-098>099-270500-
NORTHERN WYOMING

CITY           SKY/WX    TMP DP  RH WIND       PRES   REMARKS
JACKSON        CLOUDY    39  36  87 NW5       30.14R
CODY           CLOUDY    34  30  86 N10       30.21R WCI  26
GREYBULL       CLOUDY    40  31  70 NW20G28   30.16R WCI  30
WORLAND        CLOUDY    40  36  86 NW12      30.17R WCI  33
SHERIDAN       LGT RAIN  37  34  89 NW9       30.23R WCI  30
BUFFALO        CLOUDY    36  35  96 N13       30.20R WCI  27
GILLETTE       MIX PCPN  36  35  96 N13       30.18R FOG     WCI  27
HULETT         RAIN      41  39  93 NW7       30.17R
NEWCASTLE      MOCLDY    45  43  93 NW5       30.14R

$$
WYZ014>020-022>026-101>103-270500-
CENTRAL WYOMING

CITY           SKY/WX    TMP DP  RH WIND       PRES   REMARKS
BIG PINEY      CLOUDY    39  30  70 N10       30.11R WCI  32
PINEDALE       CLOUDY    36  34  93 W6        30.11R WCI  31
DUBOIS         CLOUDY    34  32  93 SE8       30.12R WCI  27
LANDER         CLOUDY    41  37  86 N3        30.13R
RIVERTON       CLOUDY    41  35  79 NE9       30.14R
CASPER         LGT RAIN  35  34  96 N12       30.14R FOG     WCI  27
DOUGLAS        LGT RAIN  41  40  96 W5        30.13R FOG

$$
WYZ021-027>030-104>119-270500-
SOUTHERN WYOMING

CITY           SKY/WX    TMP DP  RH WIND       PRES   REMARKS
EVANSTON       CLOUDY    34  30  85 NW7       30.14R WCI  28
KEMMERER       CLOUDY    36  30  80 NW14      30.12R WCI  27
FORT BRIDGER   CLOUDY    37  32  81 W13       30.15R WCI  29
ROCK SPRINGS   CLOUDY    38  35  89 NE16      30.09R WCI  29
DIXON          CLOUDY    40  37  89 CALM      30.04R
RAWLINS        CLOUDY    37  33  85 N12       30.07R WCI  29
SARATOGA       CLOUDY    41  37  87 MISG      30.03R
LARAMIE        CLOUDY    38  32  79 SE8       30.07R WCI  32
CHEYENNE       CLOUDY    38  37  97 E7        30.08R WCI  33
TORRINGTON     LGT RAIN  43  41  93 SE9       30.11R
PINE BLUFFS    DRIZZLE   37  37 100 E9        30.11R WCI  31

$$



USA.gov is the U.S. government's official web portal to all federal, state and local government web resources and services.